Content
SEND FEEDBACK

Daily
Averages
Monthly
Summary
United States of America

KINNELON, NEW JERSEY


Home > North America > United States > New Jersey
Elevation: 758 feet     Latitude: 41 01N     Longitude: 074 25W

WEATHER
 
SELECT A DAY
Number of Records: 158,117;   Date Range: 3/7/98 - 9/18/14
 
SHARE

PRINT THIS DATA

[ ← Previous Day ]
WEATHER ALMANAC - JANUARY 23, 2013
[ Next Day → ]
[ °C ]   °F
Weather ElementAverageHighLow
Temperature10.7 °F17.1 °F (11:53 am)3.9 °F (11:53 pm)
Dewpoint-4.2 °F (8:53 pm)-7.1 °F (2:53 am)
Humidity53 %80 % (9:53 pm)36 % (11:53 am)
Barometer30.18 in30.23 in (9:53 am)30.15 in (1:53 pm)
Wind Speed3.5 mph6.9 mph (10:53 am)
Wind Gust16.1 mph (10:53 am)
Weather ElementAverage
Visibility9.9 mi
Wind DirectionENE (63.8 °)

Weather ElementTotal
Precipitation---
Heating Degree Days54.5 (Base 65)
Averaged from 21 records on January 23, 2013
WEATHER CONDITIONS BREAKOUT
WIND DIRECTION BREAKOUT
WEATHER BY HOUR - JANUARY 23, 2013
[ °C ]   °F
Local TimeTemperatureDewpointHumidityBarometerVisibilityWind DirectionWind SpeedGust SpeedPrecipitationEventsConditions
2:53 AM8.1 °F-7.1 °F50 %30.19 in10.0 miVariable5.8 mphClear
3:53 AM8.1 °F-7.1 °F50 %30.18 in10.0 miVariable5.8 mphClear
4:53 AM8.1 °F-6.0 °F53 %30.18 in10.0 miWSW (240°)4.6 mphClear
5:53 AM7.0 °F-6.0 °F55 %30.19 in10.0 miWSW (250°)4.6 mphClear
7:53 AM7.0 °F-5.1 °F58 %30.20 in10.0 miWSW (240°)3.5 mphClear
8:53 AM9.0 °F-4.0 °F56 %30.21 in10.0 miVariable3.5 mphClear
9:53 AM12.0 °F-2.9 °F51 %30.23 in10.0 miVariable4.6 mphClear
10:53 AM14.0 °F-6.0 °F41 %30.22 in10.0 miVariable6.9 mph16.1 mphMostly Cloudy
11:53 AM17.1 °F-6.0 °F36 %30.19 in10.0 miNNW (330°)5.8 mphMostly Cloudy
12:53 PM16.0 °F-6.0 °F38 %30.16 in10.0 miVariable4.6 mph16.1 mphOvercast
1:53 PM16.0 °F-7.1 °F36 %30.15 in10.0 miVariable5.8 mphOvercast
2:53 PM15.1 °F-6.0 °F39 %30.16 in10.0 miVariable6.9 mphPartly Cloudy
3:53 PM16.0 °F-4.0 °F41 %30.16 in10.0 miVariable5.8 mphOvercast
4:53 PM16.0 °F-5.1 °F39 %30.16 in10.0 miWest (280°)4.6 mphMostly Cloudy
5:53 PM14.0 °F-4.0 °F45 %30.18 in10.0 miCalmClear
6:53 PM10.9 °F-2.9 °F54 %30.19 in10.0 miCalmClear
7:53 PM9.0 °F-0.9 °F64 %30.18 in10.0 miCalmClear
8:53 PM8.1 °F0.0 °F70 %30.17 in10.0 miCalmClear
9:53 PM5.0 °F0.0 °F80 %30.17 in10.0 miCalmClear
10:53 PM5.0 °F-0.9 °F76 %30.17 in8.0 miCalmClear
11:53 PM3.9 °F-0.9 °F80 %30.16 in9.0 miCalmClear
Hourly data recorded from KFWN, located miles away from Kinnelon, New Jersey







STORIES FROM OUR PARTNERS